Regional Weather Roundup
Issued by NWS

Home | Current Version | Previous Version | Graphics & Text | Print | Product List | Glossary Off
Versions: 1 2 3 4 5 6 7 8 9 10 11 12 13 14 15 16 17 18 19 20 21 22 23 24 25 26 27 28 29 30 31 32 33 34 35 36 37 38 39 40 41 42 43 44 45 46 47 48 49 50

000
ASUS43 KLOT 212012
RWRIL

ILLINOIS REGIONAL WEATHER ROUNDUP
NATIONAL WEATHER SERVICE CHICAGO/ROMEOVILLE IL
200 PM CST SAT JAN 21 2017

NOTE: "FAIR" INDICATES FEW OR NO CLOUDS BELOW 12,000 FEET WITH NO
SIGNIFICANT WEATHER AND/OR OBSTRUCTIONS TO VISIBILITY.

* THESE STATIONS ARE NOT UNDER NWS QUALITY CONTROL. THEY ALSO MAY NOT
  REPORT WEATHER SUCH AS PRECIPITATION OR FOG.

ILZ001-002-007-009-015-016-024-212100-
NORTHWEST ILLINOIS

CITY           SKY/WX    TMP DP  RH WIND       PRES   REMARKS
MOLINE         MOSUNNY   50  43  77 W13       29.45S
STERLING*      SUNNY     53  46  77 SW13      29.45S
SAVANNA*       CLOUDY    43  42  97 SW6       29.46R FOG
$$

ILZ003-004-008-010-011-017-018-212100-
NORTH CENTRAL ILLINOIS

CITY           SKY/WX    TMP DP  RH WIND       PRES   REMARKS
ROCKFORD       MOSUNNY   55  44  66 SW12      29.45R
FREEPORT*      CLOUDY    48  44  85 W12       29.45R
ROCHELLE*      SUNNY     54  46  74 SW16G22   29.45S
DE KALB*       PTSUNNY   55  47  74 SW15      29.46S
$$

ILZ005-006-012>014-019>023-212100-
NORTHEAST ILLINOIS

CITY           SKY/WX    TMP DP  RH WIND       PRES   REMARKS
CHICAGO-OHARE  MOSUNNY   58  46  64 S13G21    29.44F
CHICAGO-MIDWAY MOSUNNY   60  47  61 S12       29.46F
AURORA         MOSUNNY   58  45  62 SW16G23   29.46R
LANSING*       PTSUNNY   60  53  78 SW16      29.48F
JOLIET*        SUNNY     60  47  62 SW8G17    29.48S
WAUKEGAN       SUNNY     58  45  62 S15       29.43F
DUPAGE AIRPORT MOSUNNY   58  45  62 SW18G24   29.45S
KANKAKEE*      MOSUNNY   60  50  70 S13G18    29.49F
WHEELING       SUNNY     58  45  62 S15G23    29.45F
MORRIS*        SUNNY     58  47  65 S18       29.46S
ROMEOVILLE*    SUNNY     58  50  73 SW16G24   29.47S
NORTHERLY ISL    N/A     59  45  59 S16         N/A
$$

LMZ740>746-212100-
SOUTHERN LAKE MICHIGAN

STATION/POSITION SKY/WX   TEMP    WIND        PRES    VSBY  WAVE
                          AIR SEA DIR/SP/G                  HT/PER
                          (F)     (DEG/KT/KT) (MB)    (MI)  (FT/S)
HARRISON CRIB              56     200/ 17/ 19   N/A
BURNHAM HARBOR             59     180/ 14/ 18   N/A
CALUMET HARBOR             58     200/ 13/ 17  997.5F
BURNS HARBOR               59     190/ 15/ 19  999.0F
MICHIGAN CITY              59     150/ 12/ 14   N/A
$$

ILZ025>027-034>036-040-047-049-050-058-095>099-212100-
WEST-CENTRAL ILLINOIS

CITY           SKY/WX    TMP DP  RH WIND       PRES   REMARKS
QUINCY         SUNNY     57  44  62 SW17      29.48F
GALESBURG*     SUNNY     54  47  75 SW13      29.46S
MACOMB*        SUNNY     56  47  72 SW17      29.49S
JACKSONVILLE*  SUNNY     61  43  50 W13       29.49S
PITTSFIELD*    SUNNY     60  42  51 SW15G22   29.50S
$$

ILZ028>032-037-038-041>044-048-051>054-059>061-212100-
CENTRAL ILLINOIS

CITY           SKY/WX    TMP DP  RH WIND       PRES   REMARKS
PONTIAC        SUNNY     59  50  71 SW12G18   29.48S
BLOOMINGTON    SUNNY     60  46  59 SW13      29.49S
DECATUR        SUNNY     63  48  58 SW18      29.49F
PEORIA         MOSUNNY   59  44  57 SW16      29.47F
LACON*         SUNNY     58  43  56 W8        29.46S
LINCOLN*       SUNNY     63  47  55 SW6G16    29.48S
SPRINGFIELD    SUNNY     64  47  53 SW12      29.48F
TAYLORVILLE    SUNNY     63  48  58 S13       29.50S
$$

ILZ033-039-045-046-055>057-062-063-212100-
EAST-CENTRAL ILLINOIS

CITY           SKY/WX    TMP DP  RH WIND       PRES   REMARKS
CHAMPAIGN      SUNNY     62  52  69 S17       29.50F
RANTOUL*       SUNNY     64  53  68 SW10      29.50S
MATTOON        SUNNY     63  50  62 S14       29.52F
PARIS*         SUNNY     63  56  78 S14       29.53F
$$

ILZ079-100>102-212100-
SOUTHWEST ILLINOIS

CITY           SKY/WX    TMP DP  RH WIND       PRES   REMARKS
ALTON          SUNNY     64  46  52 S12       29.51F
BELLEVILLE     SUNNY     69  47  45 VRB6      29.50F
CAHOKIA*       SUNNY     69  40  34 SW10      29.49F
SPARTA*        SUNNY     67  50  54 S10G21    29.54F
$$

ILZ064>066-069>071-074>076-080>082-084>086-088>090-092>094-212100-
SOUTH-CENTRAL ILLINOIS

CITY           SKY/WX    TMP DP  RH WIND       PRES   REMARKS
CARBONDALE     SUNNY     68  56  65 SW17      29.55F
CAIRO*         SUNNY     69  53  57 SW14      29.57F
EFFINGHAM*     SUNNY     67  51  57 S10       29.54S
MARION         MOSUNNY   70  54  56 S17       29.56S
MT. VERNON     MOSUNNY   68  56  65 SW20      29.54F
CENTRALIA*     SUNNY     67  54  62 SW15      29.53S
SALEM*         SUNNY     68  50  53 SW16G22   29.53S
METROPOLIS*    SUNNY     71  50  48 S13G18    29.58F
$$

ILZ067-068-072-073-078-083-087-091-212100-
SOUTHEAST ILLINOIS

CITY           SKY/WX    TMP DP  RH WIND       PRES   REMARKS
LAWRENCEVILLE  SUNNY     68  56  65 SW20G26   29.55F
FLORA*         MOSUNNY   67  56  66 SW16      29.54F
FAIRFIELD*     SUNNY     68  54  61 SW12G17   29.54S
HARRISBURG*    MOSUNNY   69  53  57 SW16G26   29.56F
ROBINSON*      SUNNY     64  54  70 SW17      29.55F
CARMI*         SUNNY     69  53  57 SW15      29.55F
$$

ABBREVIATIONS USED IN REMARKS
   TC - TEMPERATURE IN CELSIUS
  WCI - WIND CHILL INDEX
   HX - HEAT INDEX
  VSB - VISIBILITY
$$





USA.gov is the U.S. government's official web portal to all federal, state and local government web resources and services.